sat.trackr.live / text

‹ back to catalog

STARLINK-6028

NORAD 56818 · 2023-078BD

PAYLOAD ACTIVE UNKNOWN

§ Identity

Operator
Country
US
Launch date
2023-05-31
Launch site
AFWTR
Launch vehicle
Mass (kg)
RCS (m²)

Purposes: comms

External: N2YO · Heavens-Above · Gunter

§ Orbital elements

Epoch: 2026-05-25T02:57:42.909120Z

Period
96.11 min
Inclination
70.0000°
Eccentricity
0.0003264
Mean motion
14.98332684 rev/d
Perigee alt
569.8 km
Apogee alt
574.3 km
Semi-major
6,950.2 km
B*
2.9684e-4
RAAN
151.5615°
Arg perigee
268.6547°
Mean anomaly
91.4238°
Rev number
16,482

§ Raw data

STARLINK-60281 56818U 23078BD  26145.12341330  .00003451  00000+0  29684-3 0  99972 56818  70.0000 151.5615 0003264 268.6547  91.4238 14.98332684164820

JSON: /api/v1/satellites/56818 · /tle

For live sub-satellite position, see the globe view (requires WebGL).

§ Visibility from observer

Set your observer location to see the next 7 days of passes ≥ 10°. The values pass through the URL so the page stays shareable.

No JS? Fill the form by hand. The geolocation button needs JavaScript.